Temperature
14 14 14 14 14 14 14 14 14 14 15 15 15 15 15 15 15 15 15 15 15 15 15 15 15 15 15 15 15 15 15 15 15 15 15 15 15 15 15 15 15 15 15
14 14 14 14 14 14 14 14 14 14 14 14 14 15 15 15 14 14 14 14 14 14 14 14 14 14 14 14 14 14 14 15 15 15 15 15 15 15 15 15 15 15 15
13 14 14 14 14 14 14 14 14 14 14 14 14 14 14 14 14 14 14 14 14 14 14 14 14 14 14 14 14 14 14 14 14 14 14 14 14 15 15 15 14 15 14
13 13 13 14 14 14 14 14 14 14 14 14 14 14 14 14 14 14 14 14 14 14 14 14 14 14 14 14 14 14 14 14 14 14 14 14 14 14 14 14 14 14 14
12 13 13 13 13 13 13 13 13 13 13 14 14 13 14 14 14 14 14 14 14 14 14 14 14 14 14 14 14 14 14 13 13 14 14 14 14 14 14 14 14 14 14
12 12 13 13 13 13 13 13 13 13 13 13 13 13 13 13 13 13 14 14 13 14 14 14 14 14 14 14 14 13 13 13 13 13 13 13 13 14 14 14 14 14 14
12 12 12 13 13 13 13 13 13 13 13 13 13 13 13 13 13 13 13 13 13 13 13 13 14 14 14 14 13 13 13 13 13 13 13 13 13 13 13 13 13 13 13
11 12 12 12 12 12 12 13 13 13 13 13 13 13 13 13 13 13 13 13 13 13 13 13 13 13 13 13 13 13 13 13 13 13 13 13 13 13 13 13 13 13 13
11 11 12 12 12 12 12 12 12 12 12 13 13 13 13 13 13 13 13 13 13 13 13 13 13 13 13 13 13 12 12 12 12 12 12 13 13 13 13 13 13 13 13
11 11 11 11 11 11 11 12 12 12 12 12 12 12 12 12 12 12 12 12 12 12 12 12 12 13 13 13 12 12 12 12 12 12 12 12 12 13 13 13 13 13 13
10 11 11 11 11 11 11 11 11 11 12 12 12 12 12 12 12 12 12 12 12 12 12 12 12 12 12 12 12 12 12 12 12 12 12 12 12 12 12 12 12 12 12
10 10 10 10 11 10 11 11 11 11 11 11 11 11 11 11 11 11 11 12 12 12 12 12 12 12 11 11 11 12 12 11 11 11 12 12 12 12 12 12 12 12 12
9 9 9 10 10 10 10 10 10 11 11 11 11 11 11 11 11 11 11 11 11 11 11 11 11 11 11 11 11 11 11 11 11 11 11 11 11 11 11 11 11 11 11
8 9 9 9 9 10 10 10 10 10 10 10 11 11 11 11 11 11 11 11 11 11 11 11 11 11 11 11 11 11 11 11 11 11 11 11 11 11 11 11 11 11 11
8 8 8 8 9 9 9 9 9 10 10 10 10 10 10 10 10 10 10 10 10 10 10 11 10 10 10 10 10 10 10 10 10 10 11 11 11 11 11 11 11 11 11
7 7 8 8 8 8 8 9 9 9 9 9 9 10 10 10 10 10 10 10 10 10 10 10 10 10 10 10 10 10 10 10 10 10 10 10 10 10 10 10 10 10 10
7 7 7 7 7 8 8 8 8 8 8 9 9 9 9 9 9 10 10 10 10 10 9 9 9 9 9 10 10 10 10 10 9 10 10 10 10 10 10 10 10 10 10
6 6 6 6 7 7 7 7 8 8 8 8 8 8 9 9 9 9 9 9 9 9 9 9 9 9 9 9 9 9 9 9 9 9 9 9 9 9 9 9 9 9 9
6 6 6 6 6 6 6 7 7 7 7 8 8 8 8 8 8 9 9 9 9 9 9 9 9 9 9 9 9 9 9 9 9 9 9 9 9 9 9 9 9 9 9
5 5 5 6 5 6 6 6 6 6 7 7 7 7 8 8 8 8 8 8 8 8 8 8 8 8 8 8 8 8 8 8 8 8 8 8 8 8 8 8 8 8 8
5 5 5 5 5 5 5 5 6 6 6 6 6 7 7 7 7 7 7 7 8 8 7 8 8 8 7 7 7 7 7 7 7 7 8 8 8 8 8 8 8 8 8
4 4 5 5 5 5 5 5 5 5 6 6 6 6 6 6 7 7 7 7 7 7 7 7 7 7 7 6 6 6 6 6 6 7 7 7 7 7 7 7 7 7 7
4 4 4 4 4 4 4 5 5 5 5 5 6 6 6 6 6 6 6 6 6 6 6 6 6 6 6 6 6 5 5 5 5 6 6 6 6 6 7 7 7 7 7
4 4 4 4 4 4 4 4 4 4 5 5 5 5 5 5 5 5 5 5 5 5 5 6 6 6 6 5 5 5 5 5 5 4 5 5 5 6 6 6 6 6 6
3 3 3 3 3 3 3 3 4 4 4 4 4 4 5 5 5 5 5 5 5 5 5 5 5 5 5 5 5 5 5 5 5 4 4 5 5 5 5 5 6 6 6
3 3 3 3 3 3 3 3 3 3 3 3 3 4 4 4 4 4 4 4 4 4 4 4 4 4 4 4 4 4 4 4 4 4 4 4 4 4 5 5 5 5 5
Wind_Speed
3 4 3 4 5 6 7 8 9 9 10 10 9 9 10 11 11 11 11 11 11 12 13 13 14 14 14 14 14 14 14 15 15 15 15 15 16 16 15 15 14 15 16
3 5 4 5 7 7 8 9 9 9 10 9 9 9 10 10 10 11 11 11 11 12 13 13 14 14 14 14 14 14 14 14 13 13 14 14 15 15 14 14 14 14 16
4 6 5 6 7 8 8 8 9 9 9 9 9 9 10 10 10 10 11 11 12 12 12 13 13 13 13 13 13 13 12 11 11 12 12 13 13 14 14 15 15 15 15
5 7 6 6 7 7 8 8 8 9 9 9 9 9 10 10 10 10 11 11 11 12 12 12 12 13 13 13 12 11 10 9 10 10 10 11 12 14 15 15 15 14 15
6 7 6 7 7 7 7 7 8 9 9 9 9 9 9 9 10 10 11 11 11 11 11 12 12 12 12 12 11 11 10 10 10 11 11 13 12 13 14 14 14 15 14
7 8 7 7 7 7 7 7 8 9 9 9 9 9 9 9 9 10 10 11 11 11 11 11 12 12 12 11 11 10 10 10 10 11 12 12 12 13 13 13 14 14 14
6 8 7 7 6 7 7 7 8 8 9 9 9 9 8 9 9 9 10 10 11 11 11 11 11 11 11 10 10 9 9 10 10 11 12 12 12 13 13 13 13 13 13
6 7 7 7 6 6 6 7 7 7 8 8 8 8 8 8 8 9 9 9 10 10 11 11 11 10 10 10 9 8 9 9 9 10 11 11 12 13 13 13 13 13 13
7 7 6 6 6 6 6 6 7 7 7 8 8 8 8 8 8 9 9 9 9 10 10 10 10 10 10 9 8 8 8 9 10 9 9 10 12 12 12 12 12 11 12
6 6 6 6 6 6 5 5 5 6 7 7 7 8 7 7 8 9 8 9 8 8 9 9 9 9 9 9 8 7 8 8 9 9 8 9 11 11 11 10 10 11 11
4 4 5 6 6 5 5 4 4 5 5 6 6 6 6 5 6 7 8 8 8 8 7 7 7 7 7 7 6 6 6 6 8 8 8 9 10 10 10 10 10 9 10
3 4 4 5 5 5 5 4 3 3 4 5 5 5 4 5 5 6 6 7 6 6 6 5 5 5 5 5 4 5 5 6 7 7 7 9 9 9 9 10 9 9 9
3 4 4 5 5 4 4 4 3 3 3 4 5 5 4 4 4 4 5 5 4 5 4 4 4 4 5 4 4 4 5 6 6 6 7 8 8 8 8 8 8 8 8
2 3 4 5 5 5 4 3 3 3 3 3 4 4 4 4 4 4 4 4 4 3 3 3 3 4 4 4 5 5 5 5 5 5 6 7 7 7 7 8 7 7 7
3 3 4 4 4 4 4 4 4 3 3 4 4 4 4 4 3 3 4 4 4 3 3 2 3 3 4 4 4 4 4 5 5 5 5 7 7 7 6 7 6 6 6
2 2 3 4 4 4 3 3 4 4 4 5 5 4 4 4 3 3 3 3 4 3 2 2 3 3 3 4 4 4 5 5 6 5 5 5 6 6 6 6 5 6 6
2 2 2 3 4 3 3 3 3 3 3 4 4 4 4 3 3 3 3 3 3 3 3 3 3 3 3 3 3 3 4 4 5 5 5 5 5 5 5 5 5 5 4
2 3 3 3 3 3 3 3 3 3 3 4 4 4 4 4 3 3 3 2 2 3 3 2 2 2 2 1 1 2 3 3 3 4 4 5 5 4 4 4 4 4 4
3 3 2 2 2 3 3 3 3 3 2 3 4 5 4 4 4 4 3 3 3 3 3 2 2 2 2 1 1 1 2 2 2 3 4 4 4 4 4 4 3 3 4
3 2 2 1 1 2 2 2 2 2 2 4 4 4 4 4 4 5 3 3 4 3 2 2 1 2 2 1 1 2 1 1 2 2 2 3 3 3 4 4 3 2 2
2 2 1 1 1 0 0 1 1 1 0 1 3 3 3 3 4 4 3 3 3 2 2 2 2 2 1 1 2 1 1 1 1 1 2 2 2 2 3 3 3 3 2
1 1 1 1 1 1 0 1 1 1 2 2 3 3 3 3 3 3 3 2 2 2 3 2 3 2 1 1 1 2 1 1 1 1 0 1 1 2 2 2 2 2 2
1 1 1 0 1 1 1 1 1 1 1 1 2 2 2 2 2 2 2 2 2 2 3 2 2 2 2 0 1 2 2 2 1 0 0 0 0 0 1 1 1 1 1
1 1 1 1 1 1 0 1 2 2 2 3 2 2 2 2 2 2 2 2 2 2 2 2 2 1 3 2 1 0 1 2 2 1 1 0 0 0 1 0 0 1 1
0 1 1 1 1 0 1 2 3 3 2 2 2 3 3 2 2 2 2 2 2 2 2 2 2 2 2 2 2 1 1 0 1 2 2 2 1 1 2 1 1 2 2
0 0 0 1 1 0 1 2 3 4 3 3 3 3 3 2 2 2 2 2 2 2 2 3 3 3 2 2 2 2 2 2 2 1 2 2 2 2 2 1 2 3 3
Wind_Direction
65 67 66 47 67 81 86 88 93 94 92 90 86 82 82 80 79 79 77 76 78 78 79 79 78 77 75 74 73 73 73 73 73 73 73 74 77 79 79 79 81 82 85
77 92 75 59 71 81 87 91 92 95 91 89 87 85 83 83 80 78 77 77 79 78 79 80 79 78 76 76 75 74 74 74 74 75 74 73 76 79 80 78 83 87 88
67 95 87 68 75 82 86 91 92 93 96 92 91 87 84 85 80 77 76 75 75 77 80 80 79 78 77 76 74 73 73 72 74 75 76 76 77 80 82 82 85 89 89
59 92 87 77 78 80 86 93 97 94 95 95 91 87 86 86 84 80 77 75 75 75 78 79 79 78 77 77 75 73 68 61 68 70 74 76 77 81 81 83 85 87 90
54 73 83 82 82 83 87 92 99 96 94 93 91 87 85 85 85 84 81 78 78 79 78 78 77 77 76 76 73 70 61 52 54 65 68 73 75 80 80 82 85 86 90
52 61 73 73 79 84 87 93 100 100 98 93 91 88 86 85 82 82 83 82 80 81 80 79 78 78 76 74 71 66 57 47 51 61 65 69 75 80 83 84 86 87 89
54 56 66 65 75 83 89 93 97 100 99 96 92 89 89 87 84 83 84 85 85 85 84 81 79 79 77 74 70 62 52 50 62 64 67 67 77 81 84 85 86 88 90
58 60 59 58 63 71 77 91 96 99 99 98 96 90 86 86 85 85 85 86 88 87 86 83 80 78 76 72 64 57 51 52 65 70 70 69 77 80 82 83 84 86 88
55 57 59 57 54 59 66 82 92 97 99 98 96 93 90 90 88 85 82 82 86 87 86 84 82 79 75 70 59 49 47 49 62 67 71 72 76 77 79 82 83 87 90
54 50 47 50 55 53 59 71 90 89 91 95 93 92 90 90 92 88 83 82 84 87 87 86 85 80 76 71 60 46 36 46 65 66 68 76 81 79 78 82 84 85 89
55 52 46 42 43 47 54 66 86 91 86 90 91 92 91 86 91 93 84 84 83 84 86 86 86 81 75 71 60 47 38 51 67 68 67 76 84 84 81 80 84 86 90
38 40 42 45 40 41 44 47 69 85 84 85 78 81 93 89 88 97 94 86 84 82 81 82 83 79 72 67 55 47 37 53 64 67 66 74 81 86 88 86 86 89 92
45 35 33 36 44 44 47 40 47 64 68 73 72 70 79 88 87 90 100 94 88 85 69 73 70 60 62 58 51 46 39 53 63 66 66 76 78 88 92 93 89 90 96
53 39 34 37 41 43 43 43 44 62 70 62 59 65 67 72 68 63 74 84 84 69 60 63 50 45 49 50 60 49 42 56 71 75 72 78 80 88 95 97 94 95 94
61 40 32 32 38 39 39 36 34 49 74 75 66 63 65 73 80 67 66 64 65 66 54 44 53 52 47 45 48 49 50 56 66 82 80 79 80 81 88 91 96 106 106
76 48 37 32 32 42 41 33 28 40 59 72 69 63 71 70 75 83 75 63 50 49 49 47 60 57 52 52 43 38 48 58 63 68 84 81 80 78 79 83 88 98 106
87 65 51 42 32 34 41 35 40 37 59 72 71 66 65 69 71 82 81 70 52 50 50 62 64 61 66 61 60 43 43 53 65 66 70 76 80 79 76 76 79 88 99
96 76 45 36 29 25 37 36 45 37 62 79 73 70 59 58 69 82 89 77 62 72 57 67 87 91 77 70 56 53 45 48 71 78 70 69 70 71 78 75 75 80 87
98 90 63 48 39 22 28 43 48 37 60 80 75 67 59 57 57 71 85 75 66 67 68 70 88 112 111 82 63 61 56 54 62 86 78 75 74 72 75 71 67 74 79
99 103 99 81 55 33 38 33 26 16 65 82 79 73 68 62 60 65 77 77 78 84 85 88 105 93 123 120 85 55 23 50 75 85 91 85 79 78 79 74 67 65 67
111 118 130 128 139 91 23 11 347 315 234 111 89 85 85 75 69 74 76 79 83 106 115 111 114 115 116 121 102 81 0 357 93 73 69 84 79 78 91 89 83 79 62
123 137 177 186 171 164 286 309 250 260 220 157 125 115 104 96 81 89 93 105 102 115 105 105 119 120 111 99 129 148 173 9 10 347 37 94 83 73 82 97 99 94 82
158 176 219 225 183 156 18 4 335 295 196 162 158 156 128 119 104 99 111 109 112 130 140 141 139 135 160 176 120 147 162 197 182 295 153 110 113 108 59 86 117 121 134
209 183 194 202 183 185 161 219 255 254 226 206 182 173 157 155 148 138 135 126 131 129 150 161 144 152 160 186 219 254 184 154 164 188 272 229 186 257 237 318 185 212 201
233 196 198 211 212 1 337 248 244 244 233 192 170 176 180 170 162 157 149 137 147 158 166 161 162 177 180 188 197 208 227 158 149 184 219 229 263 263 246 236 215 223 219
299 345 247 222 237 262 272 261 247 241 221 198 196 196 195 190 190 179 168 162 169 181 186 184 181 189 194 200 209 198 196 190 184 190 215 222 237 252 254 236 218 218 216
Height
1518 1518 1519 1520 1520 1521 1522 1523 1524 1524 1525 1526 1527 1528 1529 1529 1530 1531 1531 1532 1532 1532 1533 1533 1533 1533 1534 1534 1534 1535 1535 1536 1536 1537 1537 1537 1537 1537 1538 1538 1538 1539 1540
1517 1518 1519 1520 1521 1522 1522 1523 1524 1525 1526 1527 1528 1529 1529 1530 1531 1531 1532 1533 1533 1533 1534 1534 1535 1535 1535 1535 1536 1536 1537 1538 1538 1538 1539 1539 1539 1539 1539 1540 1540 1541 1542
1517 1518 1519 1520 1521 1522 1523 1524 1524 1525 1526 1527 1528 1529 1530 1531 1532 1532 1533 1534 1534 1535 1535 1535 1536 1536 1536 1537 1537 1538 1539 1539 1540 1540 1540 1540 1541 1541 1541 1541 1542 1543 1543
1518 1518 1519 1520 1521 1522 1523 1524 1525 1526 1527 1528 1529 1530 1531 1531 1532 1533 1534 1534 1535 1535 1536 1536 1537 1537 1537 1538 1539 1540 1540 1541 1541 1542 1542 1542 1542 1543 1543 1543 1543 1544 1545
1517 1518 1519 1520 1521 1522 1523 1524 1525 1526 1527 1528 1529 1530 1531 1532 1533 1534 1534 1535 1536 1536 1537 1537 1538 1538 1538 1539 1540 1541 1542 1542 1543 1543 1543 1543 1543 1544 1544 1544 1545 1545 1546
1517 1518 1519 1520 1521 1522 1523 1524 1525 1526 1527 1528 1529 1530 1531 1532 1533 1534 1535 1536 1536 1537 1538 1538 1538 1539 1539 1540 1541 1542 1543 1543 1544 1544 1544 1544 1545 1545 1545 1545 1546 1547 1547
1517 1518 1519 1520 1521 1522 1523 1524 1525 1526 1527 1528 1529 1530 1531 1532 1533 1534 1535 1536 1537 1537 1538 1539 1539 1540 1540 1541 1542 1543 1544 1544 1545 1545 1546 1546 1546 1546 1546 1547 1547 1548 1549
1517 1517 1518 1519 1520 1521 1522 1523 1525 1526 1527 1528 1529 1530 1531 1532 1533 1534 1535 1536 1537 1538 1538 1539 1540 1540 1541 1542 1542 1543 1544 1545 1545 1546 1546 1547 1547 1547 1547 1548 1548 1549 1550
1516 1517 1518 1518 1519 1520 1522 1523 1524 1525 1526 1527 1528 1530 1531 1532 1533 1534 1535 1536 1537 1537 1538 1539 1540 1540 1541 1542 1543 1544 1545 1545 1546 1546 1547 1547 1548 1548 1548 1549 1549 1550 1551
1515 1516 1517 1517 1518 1519 1521 1522 1523 1524 1525 1527 1528 1529 1530 1531 1533 1534 1535 1535 1536 1537 1538 1539 1540 1541 1541 1542 1543 1544 1545 1546 1546 1547 1547 1548 1548 1549 1549 1549 1550 1551 1551
1514 1515 1516 1517 1517 1518 1519 1521 1522 1523 1524 1525 1527 1528 1529 1531 1532 1533 1534 1535 1536 1537 1538 1539 1539 1540 1541 1542 1543 1544 1545 1546 1546 1547 1547 1548 1548 1549 1549 1549 1550 1551 1552
1513 1513 1514 1515 1516 1517 1518 1519 1520 1522 1523 1524 1525 1527 1528 1529 1531 1532 1533 1534 1535 1536 1537 1538 1539 1540 1541 1542 1543 1544 1545 1545 1546 1547 1547 1548 1548 1549 1549 1550 1550 1551 1552
1511 1512 1512 1513 1514 1515 1516 1517 1518 1520 1521 1522 1523 1525 1526 1528 1529 1530 1531 1533 1534 1535 1536 1537 1538 1539 1540 1541 1542 1543 1544 1545 1545 1546 1547 1548 1548 1549 1549 1550 1551 1551 1552
1510 1510 1511 1511 1512 1513 1514 1515 1516 1517 1519 1520 1521 1523 1524 1526 1527 1528 1530 1531 1532 1534 1535 1536 1537 1538 1539 1540 1541 1542 1543 1544 1544 1545 1546 1547 1548 1548 1549 1549 1550 1551 1551
1508 1508 1509 1509 1510 1511 1512 1513 1514 1515 1516 1518 1519 1521 1522 1523 1525 1526 1528 1529 1530 1532 1533 1534 1535 1536 1537 1539 1540 1541 1542 1543 1544 1544 1545 1546 1547 1548 1548 1549 1549 1550 1550
1505 1506 1507 1507 1508 1509 1509 1510 1511 1512 1514 1516 1517 1519 1520 1521 1523 1524 1526 1527 1528 1530 1531 1532 1533 1534 1535 1537 1538 1539 1540 1541 1542 1543 1544 1545 1546 1547 1547 1548 1549 1549 1550
1504 1504 1505 1505 1506 1506 1507 1508 1509 1510 1512 1513 1515 1516 1518 1519 1521 1522 1523 1525 1526 1528 1529 1530 1531 1532 1533 1535 1536 1537 1538 1539 1540 1541 1542 1543 1544 1545 1546 1547 1548 1548 1549
1502 1502 1503 1503 1503 1504 1504 1505 1506 1507 1509 1511 1512 1514 1515 1517 1518 1520 1521 1522 1524 1525 1526 1528 1529 1530 1531 1532 1534 1535 1536 1537 1538 1539 1541 1542 1543 1543 1544 1545 1546 1547 1547
1500 1500 1500 1500 1501 1502 1502 1503 1504 1505 1506 1508 1509 1510 1512 1514 1515 1517 1518 1520 1521 1522 1523 1525 1526 1527 1528 1529 1531 1532 1534 1535 1536 1537 1539 1540 1541 1541 1542 1543 1544 1545 1545
1497 1498 1498 1498 1499 1499 1500 1500 1501 1502 1503 1505 1506 1508 1509 1511 1512 1514 1515 1516 1518 1519 1520 1522 1523 1524 1526 1527 1528 1530 1531 1532 1533 1535 1536 1538 1539 1539 1540 1541 1541 1542 1543
1495 1495 1495 1495 1496 1496 1497 1497 1498 1499 1500 1502 1504 1505 1506 1508 1509 1511 1512 1513 1515 1516 1517 1519 1520 1521 1522 1524 1525 1527 1528 1530 1531 1532 1534 1535 1536 1537 1538 1539 1539 1540 1540
1492 1492 1492 1492 1493 1494 1494 1495 1496 1496 1497 1499 1501 1502 1503 1504 1506 1508 1509 1510 1511 1513 1514 1516 1517 1518 1519 1520 1522 1524 1525 1527 1528 1529 1530 1531 1533 1534 1534 1535 1536 1537 1537
1489 1489 1489 1489 1490 1490 1491 1492 1493 1493 1494 1496 1497 1499 1500 1501 1502 1504 1506 1507 1508 1509 1511 1512 1514 1514 1516 1518 1519 1521 1522 1522 1524 1525 1526 1528 1529 1530 1531 1532 1533 1534 1534
1486 1487 1487 1487 1487 1488 1489 1489 1489 1489 1490 1491 1493 1495 1497 1498 1499 1501 1502 1503 1505 1506 1507 1509 1510 1512 1513 1514 1515 1517 1519 1519 1521 1521 1523 1525 1526 1527 1528 1529 1530 1531 1531
1484 1484 1484 1484 1484 1484 1484 1485 1486 1486 1487 1488 1490 1491 1493 1494 1496 1497 1498 1500 1501 1502 1504 1505 1507 1508 1509 1510 1511 1512 1514 1515 1517 1518 1518 1520 1522 1523 1524 1525 1526 1527 1528
1481 1481 1481 1481 1481 1481 1482 1482 1482 1482 1483 1485 1486 1487 1489 1491 1492 1493 1494 1496 1497 1498 1500 1501 1503 1504 1506 1507 1508 1509 1510 1511 1512 1514 1514 1515 1516 1518 1520 1521 1522 1523 1524